Regional Weather Roundup
Issued by NWS

Home | Current Version | Previous Version | Text Only | Print | Product List | Glossary On
Versions: 1 2 3 4 5 6 7 8 9 10 11 12 13 14 15 16 17 18 19 20 21 22 23 24 25 26 27 28 29 30 31 32 33 34 35 36 37 38 39 40 41 42 43 44 45 46 47 48 49 50
000
ASUS43 KTOP 011359
RWRKS

WEATHER ROUNDUP FOR KANSAS
NATIONAL WEATHER SERVICE GOODLAND KS
900 AM CDT SAT AUG 01 2015

NOTE:  "FAIR" INDICATES FEW OR NO CLOUDS BELOW 12,000 FEET WITH NO
SIGNIFICANT WEATHER AND/OR OBSTRUCTIONS TO VISIBILITY.

KSZ001>006-013>018-027>032-041>047-011500-
NORTHWEST KANSAS

CITY           SKY/WX    TMP DP  RH WIND       PRES   REMARKS
GOODLAND       SUNNY     73  63  70 SW10      30.14S
HAYS           SUNNY     73  64  73 CALM      30.10S
HILL CITY      SUNNY     76  67  73 W5        30.10S
RUSSELL        SUNNY     76  70  82 SW5       30.08S
$$

KSZ061>065-074>080-084>089-011500-
SOUTHWEST KANSAS

CITY           SKY/WX    TMP DP  RH WIND       PRES   REMARKS
DODGE CITY     SUNNY     73  68  84 S7        30.12S
ELKHART          N/A     70  63  79 S7          N/A
GARDEN CITY    FOG       69  69 100 SE7       30.13R VSB 1/4
GREAT BEND     SUNNY     75  70  83 SW3       30.09S
LIBERAL        PTSUNNY   73  66  78 SW6       30.12S
$$

KSZ066>073-081>083-090>101-011500-
SOUTHEAST KANSAS

CITY           SKY/WX    TMP DP  RH WIND       PRES   REMARKS
CHANUTE        SUNNY     79  74  84 VRB5      30.09R
COFFEYVILLE      N/A     76  68  76 CALM      30.09R
HUTCHINSON     SUNNY     77  72  84 CALM      30.09S
MEDICINE LODGE   N/A     75  71  87 CALM      30.09S
NEWTON         SUNNY     77  70  78 SW5       30.12S
PARSONS        SUNNY     77  72  84 CALM      30.10R
WICHITA INTL   MOSUNNY   78  72  81 S3        30.08S
WICHITA JABRA  SUNNY     78  73  84 CALM      30.09S
WINFIELD       SUNNY     77  74  90 SE3       30.10R
$$

KSZ007>012-019>026-033>040-048>060-102>105-011500-
NORTHEAST KANSAS

CITY           SKY/WX    TMP DP  RH WIND       PRES   REMARKS
CONCORDIA      SUNNY     77  70  79 CALM      30.08S
EMPORIA        SUNNY     79  73  82 W7        30.09R
LAWRENCE       SUNNY     80  73  79 NW5       30.06S
MANHATTAN      SUNNY     78  73  84 VRB3      30.08R
OLATHE IND     SUNNY     80  73  79 W6        30.08R
OLATHE EXE     SUNNY     79  72  79 W9        30.07R
SALINA         SUNNY     79  71  76 W3        30.08S
TOPEKA BILLARD SUNNY     80  73  79 VRB5      30.07R
TOPEKA FORBES  SUNNY     80  72  76 W6        30.07R
$$



USA.gov is the U.S. government's official web portal to all federal, state and local government web resources and services.